Zurück zum Katalog

BLOCK DM-SL R/B

AktivGTO
NORAD 25662·ROCKET BODY· XX

Gestartet Mar 28, 1999 von Sea Launch Platform

Loading…

TLE

AlterndSource: Space-Track

Epoche: Sep 14, 2026, 18:38 UTC

1 25662U 99014B   26257.77674762 -.00000062  00000-0  77324-3 0  9997
2 25662   1.0187 254.6899 7173581 139.9299 166.7836  2.24375072225151

Verfolge BLOCK DM-SL R/B in Echtzeit mit AllMySat

Download on the App Store